Flag for Canada Weather past 2 weeks in Kawartha Lakes, Ontario, Canada

Now
72 °F

Mild.


Feels Like: 76 °F
Forecast: 59 / 79 °F
Wind: 15 mph from Northwest

Location: Lagoon City

Current Time: Jul 30, 2015 at 11:25:59 PM

Latest Report: Jul 30, 2015 at 10:00 PM


Visibility: N/A

Pressure: 29.81 "Hg

Humidity: 59%

Dew point: 57 °F

Location of Kawartha LakesLocation

Historic Weather in Kawartha Lakes — Graph

°F

Kawartha Lakes temperature yesterday

Maximum temperature yesterday: 84 °F (at 4:00 PM)
Minimum temperature yesterday: 68 °F (at 6:00 AM)
Average temperature yesterday: 76 °F

Past Weeks' High & Low Weather Summary

 TemperatureHumidityPressure
High85 °F (Jul 28, 6:00 PM)100% (Jul 16, 4:00 AM)30.13 "Hg (Jul 16, 4:00 AM)
Low53 °F (Jul 16, 4:00 AM)34% (Jul 23, 5:00 PM)29.59 "Hg (Jul 21, 4:00 AM)
Average70 °F71%29.87 "Hg
* Reported Jul 15 10:00 PM — Jul 30 10:00 PM, Kawartha Lakes, Weather by CustomWeather, © 2015

Note: Actual official high and low records may vary slightly from our data, if they occured in-between our weather recording intervals... More about our weather records

Advertising

Kawartha Lakes weather history for previous 24 hours

 ConditionsComfort  
Time TempWeatherWind HumidityBarometerVisibility
10:00 PM
Thu, Jul 30
72 °FMild.15 mph59%29.81 "HgN/A
9:00 PM72 °FMild.12 mph64%29.80 "HgN/A
8:00 PM74 °FMild.16 mph54%29.80 "HgN/A
7:00 PM77 °FWarm.22 mph54%29.79 "HgN/A
6:00 PM78 °FWarm.22 mph49%29.78 "HgN/A
5:00 PM79 °FWarm.21 mph44%29.78 "HgN/A
4:00 PM79 °FWarm.22 mph46%29.77 "HgN/A
3:00 PM78 °FWarm.22 mph52%29.78 "HgN/A
2:00 PM78 °FWarm.21 mph54%29.78 "HgN/A
1:00 PM78 °FWarm.17 mph55%29.78 "HgN/A
12:00 PM76 °FMild.13 mph58%29.79 "HgN/A
11:00 AM76 °FMild.13 mph53%29.80 "HgN/A
10:00 AM74 °FMild.13 mph59%29.80 "HgN/A
9:00 AM73 °FMild.10 mph66%29.80 "HgN/A
8:00 AM71 °FMild.17 mph73%29.80 "HgN/A
7:00 AM73 °FMild.13 mph67%29.78 "HgN/A
6:00 AM75 °FMild.9 mph58%29.78 "HgN/A
5:00 AM75 °FMild.8 mph59%29.77 "HgN/A
4:00 AM72 °FMild.5 mph70%29.77 "HgN/A
3:00 AM75 °FMild.7 mph63%29.77 "HgN/A
2:00 AM77 °FWarm.15 mph77%29.78 "HgN/A
1:00 AM78 °FWarm.15 mph74%29.77 "HgN/A
12:00 AM78 °FWarm.12 mph74%29.78 "HgN/A
11:00 PM
Wed, Jul 29
78 °FWarm.15 mph72%29.79 "HgN/A
Weather by CustomWeather, © 2015

See weather overviewHow to use our weather pages